Date,TemperatureHighF,TemperatureAvgF,TemperatureLowF,DewpointHighF,DewpointAvgF,DewpointLowF,HumidityHigh,HumidityAvg,HumidityLow,PressureMaxIn,PressureMinIn,WindSpeedMaxMPH,WindSpeedAvgMPH,GustSpeedMaxMPH,PrecipitationSumIn
2012-1-1,78.1,71.4,61.7,64.4,61.4,58.5,90,72,54,30.26,30.16,3,1,0,0.00
2012-1-2,79.4,67.2,54.5,66.1,59.0,43.2,96,76,55,30.19,30.04,6,2,0,0.00
2012-1-3,56.0,51.1,43.3,44.8,30.7,15.1,73,49,20,30.36,30.17,4,2,0,0.00
2012-1-4,67.1,54.0,42.2,52.3,37.9,21.4,74,55,42,30.39,30.25,4,1,7,0.00
2012-1-5,68.9,58.1,49.6,46.0,33.7,13.3,79,44,12,30.31,30.19,3,1,6,0.00
2012-1-6,51.5,50.6,49.7,46.1,44.7,42.9,85,80,75,30.21,30.18,1,0,2,0.00
2012-1-7,74.7,64.5,52.6,58.1,55.4,50.3,93,74,50,30.20,30.11,4,1,0,0.00
2012-1-8,76.4,67.4,56.3,60.7,57.5,54.3,94,72,51,30.24,30.15,3,1,0,0.00
2012-1-9,76.7,72.9,70.5,64.6,62.1,59.8,75,69,62,30.20,30.10,5,2,0,0.00
2012-1-10,76.8,71.7,61.4,65.4,61.9,58.4,91,72,58,30.11,29.98,5,2,0,0.00
2012-1-11,75.4,70.9,63.4,68.6,65.2,60.7,93,82,73,29.99,29.82,7,2,0,0.00
2012-1-12,78.0,71.3,66.2,67.5,65.3,63.0,95,82,66,30.00,29.86,5,2,5,0.00
2012-1-13,73.6,68.8,63.3,65.3,62.0,55.3,90,79,71,30.16,29.99,2,0,4,0.00
2012-1-14,64.2,59.6,53.9,56.5,46.6,33.6,76,63,43,30.34,30.15,2,1,5,0.00
2012-1-15,69.0,59.2,48.3,51.5,39.8,25.9,61,50,24,30.42,30.33,5,1,12,0.00
2012-1-16,71.3,66.4,57.8,59.8,53.3,43.1,71,63,55,30.42,30.31,5,3,9,0.00
2012-1-17,76.4,69.9,63.9,62.8,59.4,53.4,88,70,57,30.31,30.16,5,2,9,0.00
2012-1-18,80.9,70.0,60.7,65.3,61.3,58.6,94,76,47,30.16,30.00,4,1,7,0.00
2012-1-19,74.8,67.0,63.4,63.2,60.4,56.5,90,80,55,30.13,30.00,4,2,7,0.00
2012-1-20,75.7,69.2,57.4,60.8,57.1,52.9,90,66,53,30.20,30.10,4,2,8,0.00
2012-1-21,76.4,71.7,67.4,64.8,60.9,57.1,86,69,58,30.16,30.05,6,2,10,0.00
2012-1-22,78.6,71.7,60.4,67.3,62.4,57.0,92,73,56,30.13,30.06,4,1,4,0.00
2012-1-23,77.9,73.5,71.8,67.7,66.3,64.5,82,78,69,30.10,30.07,4,2,7,0.00
2012-1-24,78.8,74.9,71.8,68.4,67.1,65.8,83,77,68,30.17,30.08,4,2,6,0.00
2012-1-25,78.8,74.8,72.3,68.6,67.1,65.6,82,77,69,30.18,30.09,4,3,8,0.00
2012-1-26,79.0,75.4,72.9,69.6,68.1,66.7,83,78,68,30.12,30.00,7,4,12,0.00
2012-1-27,84.2,77.3,73.3,71.7,69.2,64.7,85,77,53,30.07,29.96,6,3,13,0.00
2012-1-28,79.3,73.3,68.5,69.9,67.6,65.4,93,83,69,30.15,30.04,3,1,0,0.16
2012-1-29,74.9,72.5,71.4,66.6,64.3,61.5,80,76,71,30.24,30.15,5,3,9,0.00
2012-1-30,75.7,72.1,70.2,63.1,60.7,58.3,73,67,59,30.30,30.19,5,4,12,0.00
2012-1-31,71.1,70.6,70.2,62.4,61.5,60.8,75,73,72,30.27,30.24,5,4,7,0.00
2012-2-2,71.8,71.2,70.7,67.9,67.0,65.7,89,87,83,30.15,30.14,4,1,10,0.02
2012-2-3,76.6,74.1,71.8,68.3,66.2,63.9,86,76,72,30.20,30.10,6,3,10,0.04
2012-2-4,78.3,74.0,72.8,69.4,67.0,64.3,86,79,72,30.16,30.06,5,4,11,0.01
2012-2-5,78.6,75.1,73.0,70.4,68.9,67.1,86,81,75,30.06,29.98,5,2,7,0.00
2012-2-6,78.9,74.7,70.5,70.8,69.4,66.6,93,84,73,30.07,29.98,6,2,12,0.63
2012-2-7,78.9,74.3,70.1,72.1,70.1,68.6,95,87,76,30.03,29.93,5,2,8,0.65
2012-2-8,76.5,71.8,68.7,69.5,67.9,64.5,96,88,76,30.07,29.97,3,0,4,0.00
2012-2-9,77.0,71.1,66.8,69.9,66.9,62.6,96,87,76,30.10,30.00,5,2,9,0.47
2012-2-10,71.8,71.2,71.0,69.5,69.1,68.8,94,93,92,30.07,30.05,4,3,4,0.55
2012-2-11,62.1,61.2,60.3,52.9,52.5,51.9,74,73,71,30.03,30.01,3,3,6,0.40
2012-2-12,61.2,53.9,48.2,44.4,40.6,32.5,74,61,46,30.28,30.08,3,2,7,0.00
2012-2-13,47.4,47.3,47.3,44.0,43.9,43.7,88,88,87,30.20,30.19,1,0,5,0.00
2012-2-14,72.9,70.5,66.7,61.8,58.9,55.5,75,67,59,30.15,30.08,4,2,9,0.00
2012-2-15,77.6,70.9,64.1,65.7,63.0,60.7,91,77,63,30.17,30.11,5,2,7,0.00
2012-2-20,73.5,68.1,60.7,67.5,59.2,55.7,86,74,55,30.17,29.93,5,2,0,0.00
2012-2-21,76.1,71.1,66.1,61.4,58.8,55.5,78,65,57,30.22,30.13,4,2,0,0.00
2012-2-22,77.9,72.6,63.1,65.9,63.5,59.5,89,74,63,30.14,29.96,6,2,0,0.00
2012-2-23,84.1,74.3,64.2,72.7,68.0,61.9,95,81,56,30.01,29.92,8,2,0,0.00
2012-2-24,81.8,76.0,68.5,72.9,70.9,66.7,96,85,68,30.05,29.96,8,2,0,0.01
2012-2-25,85.0,74.4,70.6,73.2,68.9,65.0,96,83,64,30.19,30.02,6,2,0,0.00
2012-2-26,77.8,73.5,69.4,70.1,67.9,65.3,92,83,76,30.25,30.17,6,4,0,0.02
2012-2-27,80.6,76.7,74.3,72.0,70.2,68.5,86,80,73,30.28,30.19,6,3,8,0.00
2012-2-28,81.4,77.0,73.9,71.9,69.7,68.4,84,78,70,30.25,30.17,4,2,9,0.02
2012-2-29,80.9,76.9,74.3,72.0,69.7,67.8,84,79,71,30.21,30.11,6,3,12,0.00
2012-3-1,80.3,77.0,73.7,71.2,69.9,68.3,85,79,72,30.13,30.02,7,4,13,0.00
2012-3-2,81.3,77.0,71.4,70.9,69.5,67.8,90,78,67,30.07,29.98,7,3,12,0.00
2012-3-3,82.0,78.2,75.3,73.2,71.2,68.7,87,79,70,30.00,29.88,10,5,21,0.00
2012-3-4,83.6,71.0,57.8,72.7,58.8,33.1,88,67,39,30.19,29.85,12,3,17,0.01
2012-3-5,74.0,64.3,53.9,58.5,47.5,33.5,64,55,40,30.33,30.18,5,2,14,0.00
2012-3-6,77.0,71.3,67.4,63.7,57.3,50.6,77,62,52,30.37,30.26,7,5,15,0.00
2012-3-7,74.3,72.8,69.9,68.3,67.6,66.1,91,84,79,30.27,30.25,6,5,12,0.43
2012-3-8,79.0,74.2,69.4,71.9,68.3,66.6,93,82,74,30.26,30.16,6,4,12,0.38
2012-3-9,80.7,76.0,73.5,71.6,69.3,67.2,86,80,70,30.20,30.10,6,2,11,0.00
2012-3-10,80.8,74.9,68.7,71.4,68.2,66.3,93,80,67,30.19,30.08,5,1,10,0.00
2012-3-11,74.7,74.4,74.1,67.8,67.0,66.1,80,78,75,30.18,30.15,3,2,6,0.00
2012-3-12,77.9,73.5,70.8,66.8,64.2,59.6,84,73,61,30.29,30.18,6,3,8,0.01
2012-3-13,79.0,74.4,71.3,65.9,63.6,61.3,76,69,60,30.24,30.16,4,3,8,0.00
2012-3-14,80.3,75.2,71.4,67.6,64.9,62.4,82,71,60,30.21,30.11,5,3,11,0.00
2012-3-15,78.8,73.9,68.2,69.7,67.2,64.2,93,80,69,30.22,30.11,6,3,11,0.90
2012-3-16,80.8,75.2,70.2,68.8,66.7,64.9,92,76,61,30.22,30.11,4,2,7,0.13
2012-3-17,81.2,75.5,70.6,67.0,64.8,62.8,81,70,57,30.22,30.12,4,2,8,0.00
2012-3-18,81.0,75.4,71.2,69.8,64.9,60.7,78,70,59,30.22,30.13,4,2,8,0.04
2012-3-19,81.4,75.8,72.1,67.7,64.4,61.9,82,69,55,30.17,30.07,4,3,8,0.00
2012-3-20,80.3,75.9,72.9,68.0,65.7,62.7,81,71,60,30.10,30.01,5,3,9,0.00
2012-3-21,81.2,76.7,74.4,69.9,68.9,66.4,83,77,67,30.14,30.03,6,4,12,0.00
2012-3-22,81.5,77.0,74.6,70.8,68.4,65.5,83,75,60,30.17,30.07,6,3,10,0.00
2012-3-23,81.9,76.6,73.3,67.9,65.8,63.7,79,70,58,30.13,30.03,4,2,7,0.00
2012-3-24,80.2,75.8,68.6,68.2,65.7,63.5,87,71,62,30.06,29.94,5,2,9,0.00
2012-3-25,84.5,76.9,69.7,68.9,66.2,63.2,88,71,51,29.98,29.82,9,4,15,0.00
2012-3-26,87.7,74.2,64.1,64.8,58.7,53.0,83,61,31,29.99,29.89,5,2,9,0.00
2012-3-27,82.0,74.9,67.5,68.2,64.4,59.9,88,70,57,30.16,29.98,5,2,10,0.12
2012-3-28,80.2,75.1,70.9,67.8,63.3,59.0,87,67,57,30.17,30.07,5,3,9,0.21
2012-3-29,78.9,74.5,71.9,64.5,62.6,60.1,73,67,58,30.09,29.99,5,2,8,0.00
2012-3-30,79.4,74.2,65.0,64.3,62.0,59.4,87,66,57,30.09,29.99,4,2,8,0.00
2012-3-31,81.4,76.6,72.1,72.2,68.1,63.1,88,75,60,30.03,29.88,8,3,13,0.10
2012-4-1,88.8,77.5,70.1,70.8,68.4,60.8,95,76,43,29.95,29.85,5,2,7,0.02
2012-4-2,85.7,77.2,67.8,71.6,68.9,65.3,92,77,54,29.93,29.85,7,3,13,0.00
2012-4-3,84.0,77.2,68.0,72.6,68.6,63.3,88,75,64,29.98,29.90,6,2,8,0.00
2012-4-4,82.0,77.3,70.4,71.6,69.5,67.7,93,77,63,29.99,29.84,9,3,15,0.00
2012-4-5,88.7,78.8,70.1,71.6,67.4,60.4,87,70,40,29.90,29.74,12,5,15,0.00
2012-4-6,85.9,78.5,72.0,74.5,70.0,63.1,94,76,54,29.90,29.74,12,5,19,0.24
2012-4-7,79.7,73.9,68.1,67.4,64.8,60.0,89,74,59,30.10,29.89,10,4,17,0.00
2012-4-8,76.5,73.3,70.3,62.3,59.6,57.3,71,63,54,30.15,30.08,6,3,11,0.00
2012-4-9,79.3,73.6,64.5,64.2,61.3,58.4,87,66,56,30.09,30.01,5,2,7,0.00
2012-4-10,80.6,74.9,67.1,64.8,61.4,58.8,83,64,49,30.09,29.99,4,2,8,0.00
2012-4-11,83.8,75.0,66.6,67.3,63.4,60.8,86,68,47,30.07,29.96,5,2,13,0.00
2012-4-12,86.3,75.8,66.2,67.7,63.3,58.9,84,66,42,30.04,29.96,6,2,9,0.00
2012-4-13,80.5,75.3,67.8,69.8,67.8,64.7,92,78,68,30.11,29.99,7,2,12,1.63
2012-4-14,78.0,74.0,67.4,68.7,65.5,62.0,95,76,63,30.22,30.07,12,5,17,2.29
2012-4-15,79.4,75.2,72.0,65.6,62.2,59.4,71,64,52,30.21,30.14,7,4,14,0.00
2012-4-16,79.1,76.1,73.9,64.6,61.9,57.4,71,62,51,30.21,30.11,8,4,13,0.00
2012-4-17,80.2,77.5,74.8,65.8,62.7,58.0,72,61,48,30.18,30.07,6,4,9,0.00
2012-4-18,79.8,76.3,73.6,68.3,66.2,63.8,79,71,62,30.11,29.98,8,5,14,0.00
2012-4-19,80.3,77.1,74.2,69.6,68.3,67.1,81,74,67,30.02,29.91,8,5,14,0.00
2012-4-20,81.9,76.7,68.5,72.6,69.3,66.1,94,79,68,29.95,29.84,11,4,16,0.53
2012-4-21,76.5,72.6,67.6,71.6,68.1,64.4,94,86,77,29.92,29.68,14,5,21,0.89
2012-4-22,82.5,75.4,67.0,72.1,66.8,61.2,94,76,50,29.74,29.57,12,7,18,0.29
2012-4-23,82.2,71.9,62.8,63.5,55.1,45.2,83,58,32,29.93,29.73,12,5,19,0.00
2012-4-24,74.8,65.8,57.4,51.2,46.0,36.6,78,52,26,30.04,29.90,5,2,9,0.00
2012-4-25,76.4,68.3,57.4,60.3,53.0,45.0,75,59,43,30.13,30.03,6,2,10,0.00
2012-4-26,77.6,72.8,62.4,64.0,61.2,58.0,89,67,57,30.16,30.07,6,2,9,0.00
2012-4-27,80.3,76.4,72.2,71.7,67.2,62.4,90,74,65,30.13,30.05,5,2,9,0.13
2012-4-28,77.5,75.6,70.9,73.3,70.9,67.0,95,85,74,30.08,30.02,7,3,11,0.36
2012-4-29,76.2,73.1,71.2,71.8,70.3,68.6,96,91,79,30.08,29.99,7,4,11,2.83
2012-4-30,75.3,73.5,71.3,71.0,70.0,68.5,93,89,84,30.05,29.98,8,6,17,0.85
2012-5-1,79.9,77.2,75.1,72.3,70.8,68.5,84,81,76,30.08,30.00,7,5,16,0.00
2012-5-2,81.1,77.8,75.3,72.5,71.0,69.1,86,80,73,30.10,30.00,6,4,13,0.00
2012-5-3,81.8,78.1,74.9,72.7,70.6,68.7,83,78,73,30.10,30.03,7,4,13,0.00
2012-5-4,81.1,77.5,74.5,70.4,68.9,67.2,83,75,64,30.10,30.01,6,3,11,0.00
2012-5-5,81.2,78.3,75.2,71.2,69.8,68.0,82,75,68,30.03,29.95,6,4,9,0.00
2012-5-6,82.7,78.2,71.4,73.2,70.8,68.6,93,78,66,30.00,29.89,9,3,16,0.00
2012-5-7,82.4,77.9,72.8,73.3,70.9,63.9,92,79,67,29.94,29.85,10,4,16,0.00
2012-5-8,82.0,74.9,69.1,73.1,69.6,64.4,94,84,69,29.92,29.87,10,2,16,0.76
2012-5-9,84.7,76.4,69.9,74.9,71.2,68.4,96,85,64,29.92,29.80,12,2,16,0.95
2012-5-10,88.9,78.5,72.6,75.9,72.3,69.8,93,82,55,29.89,29.78,7,3,12,0.96
2012-5-11,84.5,78.6,70.7,76.8,73.0,69.5,96,83,68,30.08,29.88,5,2,2,0.01
2012-5-12,82.3,79.2,77.5,73.3,71.6,69.4,85,78,67,30.16,30.05,6,4,11,0.00
2012-5-13,83.0,79.3,76.9,72.4,70.8,68.4,80,75,69,30.11,30.01,5,3,10,0.00
2012-5-14,84.8,80.5,77.7,75.5,73.5,71.2,85,79,73,30.06,29.94,6,2,9,0.00
2012-5-15,84.3,79.2,71.1,76.4,73.8,68.0,94,84,71,30.02,29.94,9,3,14,0.64
2012-5-16,84.3,76.7,71.7,75.0,72.8,70.0,96,88,66,30.02,29.92,3,1,5,0.02
2012-5-17,81.1,76.9,69.5,75.1,72.1,68.0,96,85,77,29.99,29.87,8,2,10,0.61
2012-5-18,84.1,76.1,69.4,75.2,71.1,65.0,94,85,69,29.95,29.87,7,1,11,0.41
2012-5-19,85.0,75.1,71.6,75.8,72.3,69.5,97,91,71,29.98,29.88,8,1,13,0.95
2012-5-20,83.6,77.2,70.9,74.7,72.1,69.6,96,85,71,29.97,29.89,4,1,10,0.14
2012-5-21,84.9,78.5,71.0,74.6,72.3,69.6,97,82,64,29.99,29.92,4,2,8,0.37
2012-5-22,82.3,77.5,74.2,74.4,72.6,70.3,93,85,74,29.97,29.91,10,2,14,0.14
2012-5-23,84.2,78.6,75.0,75.7,73.1,71.2,92,83,73,29.94,29.85,11,5,13,0.11
2012-5-24,81.3,76.7,73.9,74.2,72.3,70.2,95,87,76,29.90,29.81,9,3,14,0.72
2012-5-25,84.5,78.8,71.3,76.8,73.5,69.5,95,84,72,30.02,29.88,4,2,7,0.00
2012-5-26,85.4,80.2,73.8,76.3,74.1,72.0,95,82,68,30.02,29.94,5,1,8,0.00
2012-5-27,87.9,79.1,70.7,76.7,73.3,68.3,94,83,60,29.97,29.84,11,2,17,0.82
2012-5-28,85.0,80.2,75.0,76.7,74.3,70.8,94,83,73,29.98,29.90,11,4,18,0.00
2012-5-29,85.6,80.6,73.8,78.2,75.1,71.0,92,84,68,29.99,29.90,12,3,12,0.51
2012-5-30,91.2,81.9,74.1,76.9,74.6,70.6,95,79,53,29.95,29.83,10,3,11,0.00
2012-5-31,85.2,79.5,76.7,75.9,74.3,71.9,91,84,66,29.96,29.87,9,3,0,0.05
2012-6-1,83.0,76.5,71.7,76.7,73.9,70.0,97,92,80,29.99,29.88,8,2,0,3.41
2012-6-2,90.2,82.7,75.6,77.9,74.2,70.4,94,77,59,29.99,29.89,8,3,0,0.02
2012-6-3,92.7,81.8,74.7,76.5,73.2,70.8,93,76,52,30.03,29.95,6,2,0,0.00
2012-6-4,92.2,84.3,79.0,77.3,73.9,68.5,91,72,50,30.01,29.88,8,4,13,0.00
2012-6-5,92.4,84.7,79.4,76.8,74.4,69.7,91,72,51,29.90,29.82,8,4,12,0.00
2012-6-6,86.6,83.1,76.2,78.4,76.2,69.0,89,80,66,29.97,29.88,7,2,10,0.15
2012-6-7,92.1,85.3,81.4,78.8,76.5,72.0,91,76,55,29.98,29.92,8,3,13,0.00
2012-6-8,89.2,81.8,75.1,80.0,75.8,72.2,94,83,65,29.98,29.89,9,2,12,0.19
2012-6-9,86.9,82.1,77.4,79.6,77.0,74.5,94,85,75,30.03,29.91,5,2,10,0.07
2012-6-10,87.1,83.6,80.7,79.8,77.4,74.9,90,82,73,30.12,29.98,5,2,10,0.00
2012-6-11,85.5,82.1,79.9,75.9,72.7,69.7,84,74,63,30.11,30.03,5,3,9,0.00
2012-6-12,84.1,80.7,77.7,71.3,69.8,68.0,76,70,62,30.08,29.97,4,2,10,0.00
2012-6-13,85.6,80.8,72.2,73.7,71.4,68.9,92,74,62,30.00,29.90,6,2,10,0.00
2012-6-14,94.1,83.4,73.7,78.9,74.5,68.5,90,75,49,30.02,29.89,11,3,13,0.55
2012-6-15,87.3,79.2,72.9,78.3,73.7,68.3,93,84,68,29.98,29.92,12,2,12,0.12
2012-6-16,85.2,80.6,74.5,75.2,72.0,68.6,92,76,64,30.03,29.92,9,4,0,0.02
2012-6-17,84.8,81.2,78.6,71.0,68.7,64.7,77,66,57,30.03,29.93,8,4,0,0.00
2012-6-18,85.0,81.1,78.2,71.3,68.7,65.1,74,66,57,30.03,29.93,6,4,9,0.00
2012-6-19,84.0,81.1,77.3,75.0,72.7,69.4,91,76,70,30.03,29.96,8,5,19,0.29
2012-6-20,81.9,78.0,75.1,75.4,74.0,70.7,94,88,77,30.01,29.93,9,4,17,1.37
2012-6-21,85.8,80.9,77.2,76.9,75.0,70.8,91,82,72,30.00,29.88,7,3,10,0.12
2012-6-22,82.5,78.1,73.7,76.6,74.7,72.2,96,89,80,29.96,29.83,7,2,8,0.90
2012-6-23,83.3,78.4,73.5,78.0,75.0,71.1,96,89,80,30.01,29.86,9,3,11,0.60
2012-6-24,82.8,80.1,76.3,79.1,76.9,73.5,92,90,88,29.99,29.87,10,5,16,3.15
2012-6-25,88.3,83.8,81.7,78.8,77.3,75.6,88,81,67,29.87,29.77,9,6,14,0.00
2012-6-26,90.2,84.2,78.7,78.2,75.2,72.1,91,75,56,29.80,29.73,14,7,20,0.19
2012-6-27,90.7,84.3,79.2,78.3,76.5,74.0,88,78,60,29.99,29.77,13,7,21,0.11
2012-6-28,86.4,81.6,74.5,77.5,75.0,71.0,91,81,73,30.07,29.99,4,2,8,0.00
2012-6-29,86.9,83.3,79.3,77.7,74.9,71.9,83,76,64,30.06,29.95,6,3,10,0.00
2012-6-30,89.2,83.6,77.2,78.4,75.3,71.8,88,76,59,30.02,29.93,8,3,13,0.00
2012-7-1,87.6,83.9,78.5,78.8,76.0,73.9,90,78,68,30.08,29.98,7,2,10,0.00
2012-7-2,88.8,83.8,78.0,78.3,76.0,73.1,92,78,66,30.12,30.00,7,2,10,0.00
2012-7-3,87.5,83.4,77.1,78.3,76.0,72.8,91,79,71,30.08,29.99,6,2,8,0.00
2012-7-4,88.7,84.2,81.0,78.7,76.6,73.8,87,78,70,30.09,30.00,8,2,9,0.00
2012-7-5,87.4,82.4,76.0,78.6,75.1,71.2,90,79,67,30.06,29.99,6,2,8,0.40
2012-7-6,87.9,84.1,79.0,78.1,76.0,71.0,86,77,68,30.06,30.00,5,2,9,0.00
2012-7-7,88.5,83.9,78.3,78.5,76.3,72.3,87,78,70,30.09,30.01,5,3,9,0.00
2012-7-8,88.0,83.5,78.8,78.2,76.6,73.8,90,80,70,30.08,30.02,5,2,10,0.00
2012-7-9,85.6,82.0,77.8,78.1,76.0,72.6,93,82,74,30.07,29.97,6,2,9,0.03
2012-7-10,87.4,83.3,80.9,77.9,76.5,74.7,89,80,68,30.04,29.94,8,2,11,0.02
2012-7-11,82.4,78.7,73.3,77.2,74.0,71.5,96,86,73,30.08,29.96,5,2,7,2.78
2012-7-12,86.1,80.8,73.7,77.1,74.2,71.0,92,81,69,30.06,29.96,9,1,15,0.23
2012-7-13,85.8,81.4,74.2,77.1,75.0,70.3,95,81,70,30.06,29.98,5,2,9,0.86
2012-7-14,86.0,82.8,80.2,77.0,75.0,73.2,86,77,69,30.08,29.98,7,3,13,0.01
2012-7-15,83.4,79.0,72.0,76.6,73.7,69.9,95,84,73,30.12,30.03,7,3,11,1.78
2012-7-16,84.8,77.6,72.3,77.2,74.2,70.4,97,90,77,30.11,29.99,7,2,9,3.87
2012-7-17,87.6,78.2,73.3,79.0,74.4,69.7,98,89,69,30.06,29.97,8,1,9,0.07
2012-7-18,88.2,81.8,74.5,79.9,76.3,71.7,96,84,62,30.13,30.00,6,2,10,0.00
2012-7-19,87.5,84.1,79.3,78.7,77.1,75.1,93,80,68,30.19,30.09,5,2,10,0.00
2012-7-20,88.5,84.7,82.0,78.8,77.4,76.0,85,79,71,30.14,30.04,4,3,8,0.00
2012-7-21,89.1,85.2,81.9,80.0,78.5,76.8,88,80,73,30.10,30.02,5,3,8,0.00
2012-7-22,86.3,83.6,82.3,79.3,78.5,76.1,87,85,79,30.09,30.02,4,2,7,0.00
2012-7-23,87.4,82.1,76.2,79.8,76.7,72.0,92,84,71,30.17,30.09,7,2,0,0.14
2012-7-24,87.5,84.3,82.3,79.8,78.4,76.2,91,83,75,30.14,30.03,8,4,0,0.00
2012-7-25,89.9,83.9,78.9,77.7,76.0,74.0,91,78,64,30.06,30.00,8,3,0,0.00
2012-7-26,88.6,83.9,77.2,78.6,76.2,74.4,93,78,66,30.06,29.99,6,3,0,0.00
2012-7-27,88.6,84.7,78.3,78.8,76.7,75.1,90,77,69,30.10,30.00,6,2,0,0.00
2012-7-28,89.0,84.0,77.2,78.9,75.9,72.3,94,77,62,30.13,30.04,8,2,0,0.00
2012-7-29,83.6,83.2,82.6,75.9,75.1,74.4,80,77,75,30.07,30.05,4,3,10,0.00
2012-7-30,89.3,83.9,78.5,78.1,74.6,69.4,87,74,61,30.07,29.98,8,2,17,0.00
2012-7-31,89.5,81.8,76.2,77.2,74.1,71.2,91,78,65,30.06,29.99,5,1,4,0.00
2012-8-1,84.1,81.1,79.2,76.9,75.5,75.0,87,83,79,30.02,29.97,3,1,4,0.00
2012-8-5,89.3,86.4,82.9,79.7,78.4,75.7,84,77,70,30.08,30.01,6,4,9,0.10
2012-8-6,85.3,82.4,77.9,79.5,77.0,72.7,92,84,71,30.07,29.98,8,3,10,0.14
2012-8-7,86.9,83.9,81.1,79.1,77.2,73.1,86,80,72,30.03,29.96,8,4,10,0.00
2012-8-10,81.7,81.0,80.4,75.4,74.4,73.0,83,81,75,29.99,29.95,7,4,10,0.03
2012-8-11,81.5,78.0,77.2,74.4,73.0,72.7,87,85,79,29.98,29.94,4,2,5,0.00
2012-8-13,88.5,86.0,84.2,79.6,78.6,77.7,83,79,73,30.07,30.01,4,2,6,0.01
2012-8-14,88.6,85.3,80.2,79.2,77.5,75.1,89,78,66,30.05,29.95,8,3,12,0.00
2012-8-15,89.3,85.4,82.4,79.1,77.6,75.5,84,78,67,30.05,29.97,6,4,10,0.00
2012-8-16,90.2,84.4,79.5,80.0,77.7,75.2,92,81,68,30.08,29.99,5,2,7,0.00
2012-8-17,89.2,82.4,73.3,78.4,76.0,70.5,94,82,63,30.05,29.94,9,2,12,0.78
2012-8-18,92.0,80.5,76.3,78.9,75.9,72.8,95,86,58,30.00,29.91,7,2,14,1.72
2012-8-19,88.9,84.2,78.8,79.1,77.1,75.2,92,80,68,30.01,29.92,10,3,16,0.01
2012-8-20,89.1,84.8,79.4,79.2,76.8,74.8,90,77,64,30.02,29.91,10,3,15,0.00
2012-8-21,89.8,84.3,77.0,79.5,76.0,72.8,89,77,62,30.08,29.99,7,2,11,0.07
2012-8-22,89.3,83.4,76.7,79.9,75.7,70.2,88,78,68,30.09,30.02,6,2,9,0.00
2012-8-23,88.9,84.1,78.1,78.2,75.9,71.8,90,77,66,30.08,30.00,4,2,8,0.00
2012-8-24,88.1,83.7,76.1,78.5,75.7,69.3,92,77,61,30.01,29.89,9,4,18,0.15
2012-8-25,84.9,80.3,73.9,79.9,75.8,71.8,94,86,71,29.97,29.86,10,4,15,0.52
2012-8-26,84.8,80.7,76.6,78.9,77.1,74.3,96,89,78,29.88,29.68,18,8,24,5.40
2012-8-27,86.5,82.1,76.0,80.5,78.1,73.3,96,88,81,29.89,29.73,17,12,29,1.66
2012-8-30,88.6,85.9,82.7,79.0,77.6,76.0,83,77,71,30.10,30.01,6,3,10,0.00
2012-8-31,83.7,82.9,82.6,77.7,77.1,76.4,84,83,79,30.10,30.08,2,1,3,0.00
2012-9-1,88.4,83.6,78.5,79.5,77.1,75.2,92,81,74,30.10,30.01,8,3,12,0.00
2012-9-2,87.3,83.2,78.6,78.0,75.7,74.0,88,79,69,30.04,29.97,6,2,11,0.01
2012-10-17,85.0,79.7,72.2,75.7,73.4,70.1,94,82,72,29.90,29.80,6,2,0,0.10
2012-10-18,87.2,82.0,76.5,78.2,75.8,72.3,89,82,66,29.88,29.80,8,3,0,0.02
2012-10-19,86.8,80.1,76.4,79.3,75.3,70.9,96,86,67,29.90,29.81,5,1,0,0.08
2012-10-20,85.8,80.1,75.3,76.1,73.8,70.8,96,82,64,29.93,29.84,6,2,0,0.00
2012-10-21,84.6,78.8,73.9,72.5,67.4,63.1,90,69,55,30.00,29.88,7,3,0,0.00
2012-10-22,84.2,80.1,77.2,70.7,67.6,65.0,74,66,57,30.01,29.94,9,5,0,0.00
2012-10-23,85.0,80.7,77.7,73.6,69.6,64.8,75,69,63,29.98,29.91,7,5,10,0.00
2012-10-24,84.8,81.4,77.9,74.8,72.9,69.3,86,76,63,29.94,29.83,10,7,14,0.09
2012-10-25,81.3,78.5,72.0,74.9,72.1,63.5,92,81,60,29.83,29.62,19,9,27,0.71
2012-10-26,80.7,75.0,70.6,73.5,69.6,66.6,94,84,64,29.61,29.47,11,5,16,0.54
2012-10-27,84.2,75.8,69.5,68.4,64.4,60.9,86,69,47,29.69,29.49,11,7,21,0.00
2012-10-28,82.3,73.9,68.8,67.4,63.6,57.4,91,71,50,29.78,29.67,10,5,14,0.00
2012-10-29,74.3,66.4,59.9,58.6,51.3,43.5,78,60,36,29.87,29.75,9,5,17,0.00
2012-10-30,73.9,64.1,56.1,53.1,49.2,43.7,82,60,42,30.01,29.84,10,4,12,0.00
2012-10-31,76.2,66.3,56.6,59.3,55.8,52.8,93,71,48,30.07,29.98,4,1,9,0.00
2012-11-1,81.9,71.1,59.7,64.2,60.5,57.1,93,71,48,30.08,29.97,6,2,10,0.00
2012-11-2,82.8,74.5,63.4,68.0,57.1,49.8,91,57,34,30.09,30.00,4,1,7,0.00
2012-11-3,82.6,70.3,59.1,63.5,57.9,50.2,88,67,34,30.14,30.05,4,1,6,0.00
2012-11-4,80.8,72.6,63.4,66.8,64.2,61.6,95,76,58,30.12,30.01,3,1,6,0.00
2012-11-5,82.9,72.7,67.1,65.0,62.1,57.1,91,71,49,30.03,29.93,5,1,7,0.00
2012-11-6,82.6,73.7,66.3,66.6,62.4,53.9,93,70,38,29.95,29.82,9,3,14,0.00
2012-11-7,74.0,68.3,59.8,66.5,57.9,50.8,88,70,54,29.99,29.84,7,2,12,0.00
2012-11-8,71.0,62.6,56.1,52.6,46.8,38.3,82,59,33,30.11,29.97,4,2,10,0.00
2012-11-9,74.8,67.4,58.0,58.0,54.3,51.6,84,64,45,30.20,30.10,7,4,15,0.00
2012-11-10,76.5,72.8,70.9,61.4,57.2,53.7,66,58,49,30.26,30.16,6,4,13,0.00
2012-11-11,80.3,76.5,72.9,67.7,62.1,55.4,83,62,50,30.23,30.16,6,4,10,0.04
2012-11-12,81.5,76.4,69.4,70.2,68.3,65.3,93,76,66,30.20,30.11,6,4,13,0.25
2012-11-13,80.7,77.0,74.5,69.6,67.3,65.1,80,72,62,30.14,30.05,6,3,9,0.00
2012-11-14,81.6,77.3,74.5,70.0,67.7,65.9,79,73,63,30.12,30.04,5,3,10,0.00
2012-11-15,81.1,74.0,65.2,68.5,65.7,63.1,95,77,58,30.09,30.03,4,1,6,0.01
2012-11-16,79.0,71.5,65.1,68.9,66.4,63.1,94,84,70,30.11,30.02,4,2,7,0.05
2012-11-17,79.7,73.1,66.6,68.6,66.3,64.0,95,80,64,30.10,30.02,6,2,10,0.05
2012-11-18,80.4,73.8,68.3,69.8,66.8,64.9,92,79,67,30.11,30.02,8,3,13,0.00
2012-11-19,76.6,67.8,61.7,64.9,60.4,58.0,91,78,57,30.12,30.01,4,2,8,0.00
2012-11-20,76.0,65.8,60.3,65.9,61.5,57.7,95,86,71,30.04,29.92,4,1,8,0.00
2012-11-21,78.7,67.8,59.7,64.1,58.9,54.0,92,75,51,30.03,29.92,4,2,9,0.00
2012-11-22,76.1,65.5,58.1,58.4,53.1,49.5,80,65,43,30.11,30.00,6,2,7,0.00
2012-11-23,79.3,66.2,56.3,61.4,55.9,50.8,83,70,50,30.15,30.04,5,2,7,0.00
2012-11-24,65.5,58.8,56.7,56.1,51.8,47.1,87,78,68,30.12,30.05,3,1,5,0.00